This demonstration page uses our WeatherBlox Daily Observations layout. Learn more.

Left ArrowRight Arrow

40.92945, -100.16068

Hourly Observations for October 14, 2020

Temp ( °F °C ) Dew Point ( °F °C ) Humidity (%) Winds ( mph kmh ) Pressure ( in mb ) Visibility ( mi km ) Precip ( " mm )
12:15 am 00:15 Clear 58 14.3 34 1.1 41 41 S 14 22 29.84 1011 10 16.0934 0 0
12:35 am 00:35 Clear 58 14.2 34 1.3 42 42 S 15 24 29.82 1010 10 16.0934 0 0
12:55 am 00:55 Clear 57 14.1 35 1.6 43 43 S 12 19 29.8 1009 10 16.0934 0 0
1:15 am 01:15 Clear 58 14.5 35 1.8 42 42 S 10 17 29.79 1009 10 16.0934 0 0
1:35 am 01:35 Clear 59 14.9 35 1.6 41 41 S 12 19 29.78 1008 10 16.0934 0 0
1:55 am 01:55 Clear 59 14.9 35 1.5 40 40 S 14 22 29.76 1008 10 16.0934 0 0
2:15 am 02:15 Clear 58 14.6 35 1.5 41 41 SSW 12 19 29.75 1007 10 16.0934 0 0
2:35 am 02:35 Clear 59 14.8 34 1.3 40 40 S 8 13 29.74 1007 10 16.0934 0 0
2:55 am 02:55 Clear 59 15.1 35 1.5 40 40 SSW 12 19 29.72 1006 10 16.0934 0 0
3:15 am 03:15 Clear 60 15.5 34 1.3 38 38 SSW 13 20 29.7 1006 10 16.0934 0 0
3:35 am 03:35 Clear 59 15.2 34 1.2 39 39 SSW 13 20 29.68 1005 10 16.0934 0 0
3:55 am 03:55 Clear 59 15.1 34 1 39 39 SSW 13 20 29.68 1005 10 16.0934 0 0
4:15 am 04:15 Clear 58 14.5 34 1 40 40 WSW 5 7 29.69 1005 10 16.0934 0 0
4:35 am 04:35 Clear 57 14.1 33 0.7 40 40 W 7 11 29.69 1006 10 16.0934 0 0
4:55 am 04:55 Clear 57 13.7 33 0.7 41 41 SW 6 9 29.67 1005 10 16.0934 0 0
5:15 am 05:15 Clear 57 13.8 33 0.6 41 41 W 8 13 29.68 1005 10 16.0934 0 0
5:35 am 05:35 Clear 56 13.3 33 0.5 42 42 WSW 7 11 29.67 1005 10 16.0934 0 0
5:55 am 05:55 Clear 55 12.8 33 0.5 43 43 W 3 6 29.68 1005 10 16.0934 0 0
6:15 am 06:15 Clear 54 12.3 33 0.5 45 45 WSW 8 13 29.67 1005 10 16.0934 0 0
6:35 am 06:35 Clear 52 11.2 33 0.5 48 48 W 6 9 29.69 1005 10 16.0934 0 0
6:55 am 06:55 Clear 51 10.3 33 0.5 51 51 W 7 11 29.69 1005 10 16.0934 0 0
7:15 am 07:15 Clear 49 9.5 34 0.9 55 55 W 6 9 29.7 1006 10 16.0934 0 0
7:35 am 07:35 Clear 47 8.5 32 0.2 56 56 W 6 9 29.69 1006 10 16.0934 0 0
7:55 am 07:55 Sunny 52 11.3 34 0.9 49 49 NNW 14 22 29.72 1006 10 16.0934 0 0
8:15 am 08:15 Sunny 54 12.1 33 0.6 46 46 NNW 13 20 29.73 1007 10 16.0934 0 0
8:35 am 08:35 Sunny 58 14.3 36 2.1 44 44 N 16 26 29.72 1007 10 16.0934 0 0
8:55 am 08:55 Sunny 58 14.7 38 3.1 46 46 N 17 28 29.74 1007 10 16.0934 0 0
9:15 am 09:15 Sunny 59 15 38 3.6 47 47 N 18 30 29.75 1007 10 16.0934 0 0
9:35 am 09:35 Sunny 61 16 39 3.8 44 44 N 16 26 29.76 1008 10 16.0934 0 0
9:55 am 09:55 Sunny 59 15.1 39 3.8 47 47 NNW 16 26 29.79 1009 10 16.0934 0 0
10:15 am 10:15 Sunny 59 15.2 39 4 47 47 N 16 26 29.79 1009 10 16.0934 0 0
10:35 am 10:35 Sunny 60 15.5 40 4.2 47 47 NNW 10 17 29.78 1009 10 16.0934 0 0
10:55 am 10:55 Sunny 61 16.1 40 4.2 45 45 NNW 14 22 29.78 1008 10 16.0934 0 0
11:15 am 11:15 Sunny 64 17.5 39 3.8 40 40 N 15 24 29.76 1008 10 16.0934 0 0
11:35 am 11:35 Sunny 65 18.6 37 2.9 35 35 N 20 31 29.75 1008 10 16.0934 0 0
11:55 am 11:55 Sunny 67 19.2 37 2.9 34 34 N 20 31 29.75 1007 10 16.0934 0 0
12:15 pm 12:15 Sunny 68 19.8 37 3 33 33 N 18 30 29.75 1008 10 16.0934 0 0
12:35 pm 12:35 Sunny 67 19.7 38 3.1 33 33 N 22 35 29.76 1008 10 16.0934 0 0
12:55 pm 12:55 Sunny 67 19.7 38 3.3 34 34 NNW 24 39 29.76 1008 10 16.0934 0 0
1:15 pm 13:15 Sunny 67 19.7 37 2.9 33 33 NNW 24 39 29.76 1008 10 16.0934 0 0
1:35 pm 13:35 Sunny 68 19.9 37 2.5 32 32 NNW 24 39 29.76 1008 7 11.26538 0 0
1:55 pm 13:55 Sunny 67 19.6 35 1.6 30 30 NNW 24 39 29.75 1007 10 16.0934 0 0
2:15 pm 14:15 Sunny 67 19.3 35 1.4 30 30 N 29 46 29.74 1007 10 16.0934 0 0
2:35 pm 14:35 Sunny 66 19.1 35 1.5 31 31 NNW 22 35 29.77 1008 10 16.0934 0 0
2:55 pm 14:55 Partly Cloudy 65 18.4 35 1.5 32 32 N 23 37 29.8 1009 10 16.0934 0 0
3:15 pm 15:15 Partly Cloudy 65 18.1 35 1.4 33 33 NNW 21 33 29.81 1009 10 16.0934 0 0
3:35 pm 15:35 Sunny 63 17.4 34 1.1 34 34 NNW 21 33 29.83 1010 10 16.0934 0 0
3:55 pm 15:55 Partly Cloudy 63 17 34 1 34 34 NNW 21 33 29.83 1010 10 16.0934 0 0
4:15 pm 16:15 Partly Cloudy 62 16.4 32 0 33 33 NNW 17 28 29.84 1011 10 16.0934 0 0
4:35 pm 16:35 Sunny 60 15.7 33 0.3 35 35 NW 14 22 29.86 1011 10 16.0934 0 0
4:55 pm 16:55 Partly Cloudy 60 15.3 32 0 35 35 NNW 13 20 29.86 1011 10 16.0934 0 0
5:15 pm 17:15 Sunny 59 15.1 33 0.5 37 37 NW 10 17 29.88 1012 10 16.0934 0 0
5:35 pm 17:35 Partly Cloudy 59 15 33 0.4 37 37 NW 13 20 29.89 1012 10 16.0934 0 0
5:55 pm 17:55 Partly Cloudy 58 14.6 32 0 37 37 WNW 8 13 29.87 1011 10 16.0934 0 0
6:15 pm 18:15 Partly Cloudy 58 14.2 32 0.1 38 38 WNW 8 13 29.89 1012 10 16.0934 0 0
6:35 pm 18:35 Sunny 57 14 33 0.3 39 39 WNW 12 19 29.9 1013 10 16.0934 0 0
6:55 pm 18:55 Sunny 57 14 32 0.1 39 39 WNW 10 17 29.89 1012 10 16.0934 0 0
7:15 pm 19:15 Clear 56 13.6 32 0.2 40 40 WNW 9 15 29.9 1012 10 16.0934 0 0
7:35 pm 19:35 Partly Cloudy 56 13.1 32 0 41 41 WNW 6 9 29.92 1013 10 16.0934 0 0
7:55 pm 19:55 Mostly Cloudy 55 12.7 32 0.2 43 43 W 5 7 29.93 1013 10 16.0934 0 0
8:15 pm 20:15 Partly Cloudy 54 12.4 32 0.1 43 43 W 7 11 29.93 1014 10 16.0934 0 0
8:35 pm 20:35 Partly Cloudy 54 12.1 32 0 44 44 W 7 11 29.94 1014 10 16.0934 0 0
8:55 pm 20:55 Mostly Cloudy 54 12 32 0 44 44 WNW 5 7 29.94 1014 10 16.0934 0 0
9:15 pm 21:15 Cloudy 54 12.3 32 0.1 43 43 W 10 17 29.98 1015 10 16.0934 0 0
9:35 pm 21:35 Cloudy 55 12.7 32 -0.2 41 41 WNW 8 13 29.97 1015 10 16.0934 0 0
9:55 pm 21:55 Mostly Cloudy 55 12.9 31 -0.6 40 40 NNW 16 26 29.97 1015 10 16.0934 0 0
10:15 pm 22:15 Mostly Cloudy 55 12.5 31 -0.3 42 42 N 13 20 30.03 1017 10 16.0934 0 0
10:35 pm 22:35 Mostly Cloudy 54 12.2 34 1.1 47 47 N 18 30 30.03 1017 10 16.0934 0 0
10:55 pm 22:55 Partly Cloudy 53 11.8 36 2 51 51 N 13 20 30.05 1018 10 16.0934 0 0
11:15 pm 23:15 Partly Cloudy 53 11.5 36 2 52 52 N 14 22 30.06 1018 10 16.0934 0 0
11:35 pm 23:35 Clear 52 11 35 1.9 54 54 N 10 17 30.06 1018 10 16.0934 0 0
11:55 pm 23:55 Clear 51 10.6 35 1.6 54 54 N 16 26 30.08 1018 10 16.0934 0 0

Powered by AerisWeather